Location: Bele?ti
(46.1667°N, 22.7167°E)
Time: 07:14:02
(UTC+00:00)

Daily predictions for brighter satellites

Satellite Brightness Start Highest point End
(mag) Time Altitude Azimuth Time Altitude Azimuth Time Altitude Azimuth
CENTAUR R/B 4.1 16:49:36 10° NNW 16:56:21 32° NNE 17:03:50 10° E
Okean-O 2.7 16:53:58 10° SSE 16:58:24 85° WSW 17:02:52 10° NNW
Okean 2 3.4 16:55:44 10° N 16:59:54 66° ENE 17:04:02 10° SSE
Cosmos 1544 3.1 16:56:34 10° S 17:00:14 89° WNW 17:03:54 10° N
ATLAS 3B R/B 4.4 16:57:56 10° NNW 17:02:32 19° NNE 17:07:14 10° NE
CZ-2C R/B 3.2 17:01:06 10° SSW 17:02:38 12° S 17:04:07 10° SSE
Iridium 4 Rocket 3.5 16:59:24 10° S 17:04:17 73° E 17:09:42 10° N
SKYMED 2 4.4 17:03:13 10° N 17:07:30 57° WNW 17:11:44 10° SSW
YAOGAN 1 2.6 17:03:51 10° SSE 17:08:10 88° ENE 17:12:31 10° NNW
H-2A R/B 2.2 17:04:11 10° SE 17:08:57 52° ENE 17:13:53 10° N
GP-B 3.5 17:04:46 10° N 17:09:12 70° W 17:13:36 10° SSW
Cosmos 1975 2.8 17:05:46 10° S 17:09:50 78° E 17:13:56 10° NNE
SJ-11-01 4.4 17:06:50 10° SSE 17:11:27 57° ENE 17:16:04 10° N
CZ-4 R/B 2.0 17:10:29 10° S 17:14:41 66° WSW 17:18:52 10° NNW
Cosmos 1437 2.5 17:15:37 10° N 17:18:37 88° E 17:21:37 10° S
ISS -3.0 17:17:20 10° SSW 17:20:24 34° SE 17:23:10 12° ENE
Cosmos 1842 3.4 17:17:14 10° NNW 17:21:06 76° W 17:24:58 10° S
ARGOS 3.3 17:16:26 10° SE 17:21:37 53° ENE 17:26:51 10° N
CZ-2C R/B 3.5 17:20:08 10° NE 17:24:53 28° E 17:29:39 10° SSE
Cosmos 990 Rocket 4.4 17:19:57 10° SSW 17:25:02 66° WNW 17:30:11 10° NNE
Cosmos 1782 Rocket 3.6 17:24:12 10° S 17:28:36 84° W 17:33:05 10° N
Cosmos 1025 Rocket 3.7 17:24:41 10° N 17:28:45 36° ENE 17:32:48 10° SE
Cosmos 2233 Rocket 4.4 17:22:57 10° SSW 17:29:10 69° W 17:35:21 10° N
Cosmos 2151 Rocket 4.3 17:29:28 10° SSE 17:33:22 31° E 17:37:19 10° NNE
Cosmos 1707 2.8 17:30:02 10° N 17:33:49 53° ENE 17:37:33 10° SSE
NOSS 3-2 (A) 4.3 17:28:49 10° NW 17:36:03 56° NE 17:42:54 15° ESE
NOSS 2-2 (C) 3.0 17:32:42 10° SSW 17:36:09 60° SE 17:39:56 10° NE
Ariane Rocket 3.3 17:33:06 10° SE 17:37:53 45° ENE 17:42:43 10° N
CZ-2C R/B 3.5 17:32:49 10° S 17:38:01 70° WSW 17:43:34 10° NNW
Nadezhda 4 Rocket 4.3 17:32:45 10° N 17:38:32 43° ENE 17:44:19 10° SE
Cosmos 2263 Rocket 2.7 17:34:02 10° SW 17:39:32 64° WNW 17:45:08 10° NNE
SJ-6B 3.4 17:40:37 19° SE 17:42:45 34° ENE 17:46:11 10° N
USA 186 2.0 17:41:31 18° SE 17:43:30 44° ENE 17:46:36 10° N
Cosmos 2034 Rocket 4.3 17:37:45 10° SSE 17:43:44 45° E 17:49:44 10° NNE
CREW DRAGON DEMO-1 DEB 4.4 17:41:39 10° WNW 17:44:20 27° N 17:46:07 16° NE
Cosmos 1844 Rocket 3.2 17:41:32 10° SSE 17:46:29 34° ESE 17:51:27 10° NE
FREGAT/IRIS 3.1 17:49:42 30° ENE 17:49:42 30° ENE 17:51:58 10° N
Cosmos 2298 Rocket 4.2 17:45:01 10° S 17:50:06 47° ESE 17:55:12 10° NNE
HJ-1C 4.4 17:48:01 10° S 17:51:11 46° W 17:54:24 10° NNW
Cosmos 1975 Rocket 3.9 17:48:04 10° NNW 17:52:16 51° W 17:56:26 10° S
SPOT 3 Rocket 4.4 17:52:17 22° ESE 17:54:31 31° ENE 17:59:00 10° N
Cosmos 1943 4.3 17:51:08 10° NW 17:56:29 44° WSW 18:01:48 10° S
USA 234 3.7 17:51:38 10° ENE 17:57:35 36° SE 18:03:30 10° SSW
USA 102 3.0 17:53:50 14° SSE 17:59:39 87° WSW 18:00:29 42° NNW
Cosmos 1867 3.9 17:58:26 10° NW 18:03:52 67° WSW 18:08:20 15° SSE
MetOp-A 4.1 18:01:37 17° SSE 18:05:42 62° ENE 18:11:00 10° N
Resurs 01 Rocket 2.7 18:05:19 25° ENE 18:05:49 26° ENE 18:09:29 10° N
Cosmos 1833 Rocket 4.4 18:04:18 10° N 18:08:02 18° NE 18:09:44 16° ENE
Cosmos 372 Rocket 4.0 18:04:34 10° SSW 18:09:49 83° WNW 18:15:05 10° NNE
Lacrosse 5 rocket 3.6 18:06:29 10° WNW 18:09:54 22° N 18:13:26 10° NE
IRS-1A Rocket 4.3 18:04:18 10° SSE 18:10:13 84° ENE 18:16:07 10° NNW
Meteor 1-15 Rocket 4.3 18:04:57 10° SSE 18:10:21 51° E 18:15:52 10° NNE
NOSS 3-2 (C) 4.2 18:03:34 10° NW 18:10:51 58° NE 18:15:36 27° ESE
MOS 1 Rocket 3.9 18:09:54 10° N 18:14:16 53° WNW 18:18:27 10° SSW
Meteor 1-12 Rocket 4.4 18:08:57 10° SSW 18:14:53 80° W 18:20:45 10° N
Cosmos 1634 Rocket 4.5 18:14:26 29° SE 18:16:30 36° E 18:22:04 10° NNE
OBJECT-B 1.3 18:19:21 45° NE 18:19:21 45° NE 18:22:03 10° N
DMSP B5D2-2 4.0 18:14:04 10° NNE 18:19:22 68° ESE 18:24:37 10° S
Cosmos 2150 Rocket 3.9 18:14:24 10° SSW 18:19:46 77° ESE 18:25:14 10° NNE
Cosmos 1626 3.8 18:19:38 10° NNE 18:21:30 21° NE 18:21:30 21° NE
ARIANE 5 R/B 4.1 18:23:29 22° NE 18:23:29 22° NE 18:26:15 10° NNE
Cosmos 2285 Rocket 4.1 18:17:07 10° S 18:23:09 51° ESE 18:29:15 10° NNE
Cosmos 1125 Rocket 3.5 18:22:37 10° S 18:27:49 61° ESE 18:33:05 10° NNE
Okean 2 Rocket 4.0 18:25:26 10° SSW 18:29:48 51° WNW 18:34:12 10° N
Cosmos 1464 Rocket 4.5 18:25:21 10° SSW 18:31:23 60° WNW 18:37:30 10° N
Okean 1 Rocket 3.1 18:31:11 55° ESE 18:31:36 57° E 18:36:01 10° NNE
Abrixas rocket 3.0 18:29:31 10° WNW 18:31:43 41° NW 18:31:43 41° NW
Cosmos 1092 Rocket 3.9 18:31:56 10° N 18:38:06 74° E 18:40:57 34° SSE
ATLAS 2AS CENTAUR R/B 3.4 18:31:18 10° S 18:38:28 39° ESE 18:45:39 10° NE
Meteor 2-13 Rocket 4.3 18:32:51 10° N 18:39:04 78° E 18:42:01 33° SSE
Cosmos 2195 Rocket 4.4 18:34:09 10° N 18:40:25 69° E 18:42:45 40° SSE
Meteor 2-5 Rocket 3.7 18:35:48 10° N 18:41:27 67° ENE 18:42:58 48° SE
Resurs 1-3 3.5 18:41:32 64° SSE 18:42:11 85° ENE 18:46:37 10° NNW
Cosmos 2026 Rocket 4.0 18:38:05 10° N 18:44:25 64° E 18:46:19 45° SE
Cosmos 1805 3.6 18:49:00 56° N 18:49:00 56° N 18:52:09 10° N
CENTAUR R/B 3.1 18:40:12 10° NW 18:48:17 81° NE 18:51:58 40° SE
BREEZE-M R/B 3.4 18:39:52 10° WSW 18:48:37 80° NNW 18:48:53 73° NE
H-2A R/B 4.3 18:45:00 10° SW 18:48:43 21° W 18:52:32 10° NW
Cosmos 2082 Rocket 3.7 18:45:59 10° N 18:50:09 21° NE 18:50:26 20° NE
Cosmos 1674 3.2 18:48:07 10° NNW 18:51:54 56° W 18:52:09 55° WSW
Meteor 1-22 Rocket 4.3 18:52:11 56° ESE 18:52:44 59° E 18:58:39 10° NNE
Exosat Rocket 3.5 18:49:12 10° SSW 18:54:51 89° WNW 18:59:52 10° NNE
ATLAS 3B R/B 3.4 18:48:50 10° NNW 18:55:12 40° NE 18:56:56 35° ENE
Cosmos 1428 Rocket 4.4 18:49:53 10° N 18:56:11 73° E 18:57:36 54° SE
ISS -2.2 18:53:51 10° W 18:56:08 36° WNW 18:56:08 36° WNW
Cosmos 2279 Rocket 4.3 19:00:02 47° ENE 19:00:02 47° ENE 19:05:27 10° NNE
USA 238 DEB 4.0 18:52:18 10° NW 18:59:29 67° WSW 19:02:30 38° S
USA 238 4.0 18:52:25 10° NW 18:59:35 67° WSW 19:02:35 38° SSE
COSMOS 2406 3.6 18:55:38 10° NNW 19:01:06 46° ENE 19:01:06 46° ENE
CZ-2C R/B 3.9 18:57:05 10° NNE 19:00:45 60° NNE 19:00:45 60° NNE
SPOT 1/Viking Rocket 4.4 19:02:43 37° NE 19:02:43 37° NE 19:06:38 10° N
Cosmos 2142 Rocket 4.5 19:02:24 59° ESE 19:02:37 59° E 19:08:44 10° NNE
Meteor 1-24 Rocket 3.5 18:58:59 10° N 19:04:30 79° E 19:04:56 74° SE
CZ-2C R/B 3.7 19:00:04 10° N 19:05:20 46° WNW 19:10:39 10° SW
Cosmos 1269 Rocket 3.9 19:02:19 10° NNW 19:07:34 76° NE 19:07:34 76° NE
Spot 2 Rocket 4.1 19:10:54 44° NNE 19:10:54 44° NNE 19:14:47 10° N
MetOp-B 4.1 19:20:19 79° N 19:20:19 79° N 19:25:23 10° NNW
Cosmos 1844 4.2 19:15:47 10° SW 19:21:24 58° WNW 19:26:59 10° NNE
Terra 3.8 19:23:42 18° NNE 19:23:42 18° NNE 19:25:23 10° N
Cosmos 1844 Rocket 3.8 19:25:01 10° SW 19:30:16 41° NW 19:35:33 10° NNE
Lacrosse 4 Rocket 3.8 19:29:04 10° N 19:30:19 16° N 19:30:19 16° N
USA 234 3.3 19:37:13 28° NE 19:40:57 77° NNW 19:47:29 10° WSW
Resurs 01 Rocket 3.1 19:42:53 34° WNW 19:42:53 34° WNW 19:46:17 10° NNW
SPOT 5 4.3 19:49:28 34° N 19:49:28 34° N 19:52:34 10° N
Lacrosse 5 rocket 3.7 19:46:46 10° NW 19:49:28 21° N 19:49:28 21° N
Cosmos 1833 Rocket 3.3 19:47:12 10° NNW 19:51:25 51° NNW 19:51:25 51° NNW
Cosmos 1655 Rocket 4.3 19:51:31 10° N 19:56:43 64° NNW 19:56:43 64° NNW
ATLAS 2AS CENTAUR R/B 3.3 20:21:22 10° SW 20:29:14 62° NW 20:37:03 10° NE
Cosmos 2082 Rocket 3.7 20:29:18 10° NNW 20:32:16 33° NNW 20:32:16 33° NNW
CENTAUR R/B 4.3 20:31:38 10° NW 20:38:36 31° WSW 20:39:10 30° WSW
ATLAS 3B R/B 3.6 20:39:27 10° NW 20:44:10 44° WNW 20:44:10 44° WNW
Terra 4.5 21:02:36 16° NNW 21:02:36 16° NNW 21:03:37 10° NNW
Cosmos 2278 Rocket 4.3 21:07:57 22° N 21:07:57 22° N 21:10:11 10° NNE
USA 234 4.5 21:17:29 10° NE 21:24:44 36° NW 21:29:27 10° W
SL-16 R/B 4.3 22:58:38 26° NNE 22:58:38 26° NNE 23:02:08 10° N
Cosmos 2227 Rocket 4.3 23:25:11 10° N 23:27:48 22° NNE 23:27:48 22° NNE
CZ-4C R/B 4.4 23:34:17 20° NNW 23:34:32 20° NNW 23:39:15 10° NNE
